Vancouver, WA
on Saturday, January 26, 2013

Saturday
Previous Day Next Day
Daily Summary
 ActualAverageRecord
Temperature
Mean Temperature °F 42°F  
Max Temperature 47°F 49°F 62°F (1931)
Min Temperature 39°F 36°F 7°F (1957)
Degree Days
Heating Degree Days 22    
Month to date heating degree days 767  
Since 1 July heating degree days 2315  
Cooling Degree Days 0    
Month to date cooling degree days 0  
Year to date cooling degree days 0  
Moisture
Dew Point 38°F   
Average Humidity 85    
Maximum Humidity 100    
Minimum Humidity 70    
Precipitation
Precipitation 0.06 in 0.17 in 1.29 in (1920)
Month to date precipitation 1.72 4.73  
Year to date precipitation 1.72 4.73  
Snow
Snow 0.00 in in in ()
Month to date snowfall 0.0  
Snow Depth 0.00 in   
Wind
Wind Speed 3 mph   
Max Wind Speed 12 mph   
Max Gust Speed 16 mph   
Visibility 8 miles   
Events Rain   

Key: T is trace of precipitation, MM is missing value
Source: NWS Daily Summary
Time(PST)TemperatureDew PointHumidity Pressure Visibility Wind DirectionWind SpeedGust SpeedPrecipitationEvents Conditions
12:02 AM 39.2°F 39.2°F 100% 29.98 in 0.8 miles SE 8.1 mph - N/A   Overcast
12:53 AM 39.9°F 39.0°F 97% 29.97 in 0.8 miles ESE 4.6 mph - N/A   Overcast
1:04 AM 39.2°F 39.2°F 100% 29.97 in 1.0 miles ESE 4.6 mph - N/A   Overcast
1:11 AM 39.2°F 37.4°F 93% 29.97 in 1.5 miles East 4.6 mph - N/A   Overcast
1:16 AM 39.2°F 37.4°F 93% 29.96 in 3.0 miles East 4.6 mph - N/A   Overcast
1:26 AM 39.2°F 37.4°F 93% 29.97 in 4.0 miles Calm Calm - N/A   Mostly Cloudy
1:38 AM 39.2°F 39.2°F 100% 29.97 in 6.0 miles ESE 4.6 mph - N/A   Mostly Cloudy
1:53 AM 39.9°F 37.9°F 93% 29.97 in 8.0 miles ESE 4.6 mph - N/A   Mostly Cloudy
2:00 AM 39.2°F 37.4°F 93% 29.96 in 9.0 miles ESE 4.6 mph - N/A   Mostly Cloudy
2:53 AM 39.9°F 39.0°F 97% 29.96 in 7.0 miles ESE 6.9 mph - 0.01 in Rain Light Rain
3:53 AM 39.9°F 37.9°F 93% 29.95 in 10.0 miles East 5.8 mph - 0.02 in Rain Light Rain
4:53 AM 42.1°F 39.0°F 89% 29.96 in 10.0 miles Calm Calm - 0.00 in   Overcast
5:17 AM 42.8°F 39.2°F 87% 29.96 in 10.0 miles Variable 3.5 mph - N/A   Overcast
5:25 AM 42.8°F 39.2°F 87% 29.96 in 10.0 miles South 3.5 mph - N/A   Overcast
5:35 AM 42.8°F 39.2°F 87% 29.96 in 10.0 miles South 6.9 mph - N/A   Overcast
5:53 AM 44.1°F 39.0°F 82% 29.96 in 10.0 miles SSW 6.9 mph - N/A   Overcast
6:53 AM 43.0°F 37.9°F 82% 29.97 in 10.0 miles Calm Calm - N/A   Scattered Clouds
7:50 AM 42.8°F 39.2°F 87% 29.98 in 10.0 miles ESE 5.8 mph - N/A   Overcast
7:53 AM 43.0°F 39.0°F 86% 29.98 in 10.0 miles East 5.8 mph - N/A   Overcast
8:53 AM 43.0°F 39.0°F 86% 29.99 in 10.0 miles ESE 4.6 mph - N/A   Overcast
9:53 AM 44.1°F 39.0°F 82% 30.01 in 10.0 miles Calm Calm - 0.00 in Rain Light Rain
10:18 AM 42.8°F 39.2°F 87% 30.01 in 8.0 miles SSW 4.6 mph - 0.01 in Rain Light Rain
10:31 AM 42.8°F 39.2°F 87% 30.01 in 10.0 miles Calm Calm - 0.02 in Rain Light Rain
10:43 AM 42.8°F 39.2°F 87% 30.01 in 10.0 miles Calm Calm - 0.02 in   Overcast
10:53 AM 44.1°F 39.0°F 82% 30.01 in 10.0 miles SW 3.5 mph - 0.02 in Rain Light Rain
11:20 AM 44.6°F 37.4°F 76% 30.01 in 10.0 miles SSW 4.6 mph - 0.00 in Rain Light Rain
11:53 AM 43.0°F 39.0°F 86% 30.01 in 10.0 miles Calm Calm - 0.01 in Rain Light Rain
12:53 PM 44.1°F 37.9°F 79% 30.00 in 10.0 miles SW 5.8 mph - 0.00 in   Overcast
1:53 PM 45.0°F 37.9°F 76% 29.99 in 10.0 miles South 3.5 mph - 0.00 in   Mostly Cloudy
2:50 PM 46.4°F 37.4°F 71% 29.99 in 10.0 miles SW 4.6 mph - N/A   Overcast
2:53 PM 46.0°F 37.0°F 71% 29.99 in 10.0 miles SW 3.5 mph - N/A   Mostly Cloudy
3:22 PM 46.4°F 37.4°F 71% 29.99 in 10.0 miles SSW 3.5 mph - N/A   Mostly Cloudy
3:53 PM 45.0°F 37.0°F 74% 29.99 in 10.0 miles South 5.8 mph - N/A   Scattered Clouds
4:53 PM 44.1°F 36.0°F 73% 30.00 in 10.0 miles South 4.6 mph - N/A   Mostly Cloudy
5:53 PM 44.1°F 36.0°F 73% 30.02 in 10.0 miles South 3.5 mph - N/A   Overcast
6:53 PM 43.0°F 37.0°F 80% 30.04 in 10.0 miles Calm Calm - N/A   Overcast
7:53 PM 42.1°F 36.0°F 79% 30.05 in 10.0 miles South 3.5 mph - N/A   Overcast
8:53 PM 41.0°F 37.0°F 86% 30.06 in 10.0 miles Calm Calm - N/A   Overcast
9:53 PM 39.9°F 37.0°F 89% 30.08 in 10.0 miles Calm Calm - N/A   Mostly Cloudy
10:53 PM 39.9°F 36.0°F 86% 30.09 in 10.0 miles Calm Calm - N/A   Overcast
11:53 PM 39.9°F 37.0°F 89% 30.10 in 10.0 miles Calm Calm - N/A   Overcast
Moon Phase
Jan. 26 Jan. 26 Feb. 03 Feb. 10 Feb. 17
Sunrise:07:38 AM (PST) Moon Rise:05:11 PM (PST)
Sunset:05:08 PM (PST) Moon Set:06:57 AM (PST)

Copyright © 2014 The Weather Underground, Inc.